OPS 4682 DEB, 11631

Orbit data source: Space-Track

OPS 4682 DEB, 11631 is space debris in LEO originally from a launch on Sat, 03 Apr 1965 UTC launched from the Air Force Western Test Range (AFWTR). Debris objects in space refer to the collection of defunct objects orbiting the Earth. Examples of debris include non-operational satellites, rocket bodies, and fragments generated from explosions, collisions, or faulty payload assembly.

Loading next visibility...
Identifier
11631, 1965-027F
Orbit
LEO
Country
Flag of USUS
Related business
Manufacturer
Unknown
Mission
Spacecraft
Bus & Motor
Unknown
Mass
Unknown
Launch date (UTC)
1965-04-03 (61 years ago)
Launch vehicle
Unknown
Launch site
Air Force Western Test Range (AFWTR)
Object type
Payload
Rocket body
Debris
Shape & HBR
Unknown shape, 0.1 m
Radar Cross Section
Small (<0.1 m²)

Expand to show TLE details & history
Last TLE update: 2 days ago

TLE from 2 days ago
0 OPS 4682 DEB
1 11631U 65027F   26104.20099434  .00000483  00000-0  16508-2 0  9993
2 11631  90.2440   4.5817 0039604 243.5766 270.2083 12.96741593117483
Epoch: 2026-04-14T04:49Z
TLE epoch observation values (Epoch: 2026-04-14T04:49:25.910Z)
Latitude
26.7013°
Longitude
-90.03479°
Altitude
1,278.14 km
Speed
7.219 km/s
True Right ascension
12h 18m 48s
True Declination
26° 34' 22"
Sunlit
Object was in full shadow at epoch
Visualization orbit readout
Latitude
Unknown
Longitude
Unknown
Altitude
Unknown
Speed
Unknown
Apparent Right ascension
Unknown
Apparent Declination
Unknown
Sunlit
N/A
Visualization observer readout
Local Sidereal Time
16:24:18
Azimuth
Unknown
Elevation
Unknown
Doppler factor
Unknown
Orbital elements
Apogee altitude
1,302.309 km
Perigee altitude
1,241.714 km
Semi-major axis
7,650.149 km
Eccentricity
0.00396
Inclination
90.244°
RAAN
4.5817°
Arg. of periapsis
243.5766°
True anomaly
269.75447°
Mean anomaly
270.2083°
Eccentric anomaly
269.98139°
Mean motion
3.24368 °/min
Orbital period
110.98 mins
BSTAR
0.0016508
Loading maneuver chart data...
Computing Atmospheric mass density...
Loading historical data...
Loading historical data...
Loading historical data...
Loading historical data...
Loading historical data...
Loading historical data...
Loading historical data...

Documentation

Showing up to 5 results
|